When you browse on this site, cookies collect data to enhance your experience and personalize the content and advertising you see.
Visit our Privacy Policy to learn more. By continuing to use the site, you agree to this use of cookies and data.
  • In Switzerland
  • List of Countries
  • For 7 days
  • Water Temperature
  • Satellite Maps
  • Weather Map
  • Weather Widgets
  • user-avatar
    Login

    Hourly Weather Batina

    Today, 21 January, Monday

    Time Temperature Precipitation Wind Pressure Humidity
    00:00 +4°C° 0 mm 3 mps 664 mmHg 89%
    01:00 +4°C° 0 mm 3 mps 664 mmHg 89%
    02:00 +4°C° 0 mm 3 mps 663 mmHg 90%
    03:00 +4°C° 0 mm 3 mps 663 mmHg 90%
    04:00 +3°C° 0 mm 3 mps 663 mmHg 91%
    05:00 +3°C° 0 mm 3 mps 663 mmHg 92%
    06:00 +3°C° 0 mm 3 mps 663 mmHg 93%
    07:00 +4°C° 0.1 mm 3 mps 664 mmHg 86%
    08:00 +5°C° 0.1 mm 4 mps 664 mmHg 78%
    09:00 +6°C° 0.1 mm 4 mps 664 mmHg 71%
    10:00 +6°C° 0 mm 5 mps 665 mmHg 66%
    11:00 +7°C° 0 mm 6 mps 665 mmHg 61%
    12:00 +6°C° 0 mm 7 mps 665 mmHg 56%
    13:00 +6°C° 0.2 mm 7 mps 665 mmHg 60%
    14:00 +5°C° 0.2 mm 7 mps 665 mmHg 64%
    15:00 +5°C° 0.2 mm 7 mps 665 mmHg 68%
    16:00 +4°C° 0.1 mm 6 mps 665 mmHg 72%
    17:00 +4°C° 0.1 mm 4 mps 666 mmHg 76%
    18:00 +4°C° 0.1 mm 3 mps 666 mmHg 80%
    19:00 +3°C° 0 mm 3 mps 666 mmHg 82%
    20:00 +4°C° 0 mm 2 mps 666 mmHg 84%
    21:00 +3°C° 0 mm 2 mps 666 mmHg 86%
    22:00 +3°C° 0 mm 2 mps 666 mmHg 88%
    23:00 +4°C° 0 mm 1 mps 666 mmHg 90%

    Tomorrow, 22 January, Tuesday

    Time Temperature Precipitation Wind Pressure Humidity
    00:00 +3°C° 0 mm 1 mps 667 mmHg 92%
    01:00 +3°C° 0 mm 1 mps 666 mmHg 92%
    02:00 +2°C° 0 mm 1 mps 666 mmHg 92%
    03:00 +2°C° 0 mm 1 mps 666 mmHg 93%
    04:00 +2°C° 0 mm 1 mps 666 mmHg 92%
    05:00 +2°C° 0 mm 1 mps 666 mmHg 91%
    06:00 +2°C° 0 mm 1 mps 666 mmHg 90%
    07:00 +3°C° 0 mm 1 mps 666 mmHg 84%
    08:00 +4°C° 0 mm 1 mps 667 mmHg 78%
    09:00 +4°C° 0 mm 1 mps 667 mmHg 72%
    10:00 +5°C° 0.1 mm 1 mps 667 mmHg 67%
    11:00 +5°C° 0.1 mm 2 mps 666 mmHg 61%
    12:00 +6°C° 0.1 mm 2 mps 666 mmHg 56%
    13:00 +6°C° 0.3 mm 2 mps 666 mmHg 55%
    14:00 +5°C° 0.3 mm 3 mps 665 mmHg 54%
    15:00 +5°C° 0.3 mm 3 mps 665 mmHg 53%
    16:00 +4°C° 0.1 mm 3 mps 664 mmHg 57%
    17:00 +4°C° 0.1 mm 3 mps 664 mmHg 61%
    18:00 +4°C° 0.1 mm 2 mps 664 mmHg 64%
    19:00 +3°C° 0 mm 2 mps 664 mmHg 67%
    20:00 +2°C° 0 mm 2 mps 664 mmHg 70%
    21:00 +3°C° 0 mm 1 mps 664 mmHg 73%
    22:00 +2°C° 0 mm 2 mps 663 mmHg 75%
    23:00 +1°C° 0 mm 2 mps 663 mmHg 76%

    Day after tomorrow, 23 January, Wednesday

    Time Temperature Precipitation Wind Pressure Humidity
    00:00 +1°C° 0 mm 2 mps 663 mmHg 78%
    01:00 +1°C° 0 mm 2 mps 662 mmHg 78%
    02:00 +1°C° 0 mm 2 mps 662 mmHg 77%
    03:00 +1°C° 0 mm 2 mps 661 mmHg 77%
    04:00 +1°C° 0 mm 2 mps 661 mmHg 77%
    05:00 +1°C° 0 mm 2 mps 660 mmHg 78%
    06:00 -1°C° 0 mm 3 mps 660 mmHg 78%
    07:00 0°C° 0.2 mm 3 mps 660 mmHg 79%
    08:00 0°C° 0.2 mm 4 mps 660 mmHg 79%
    09:00 +1°C° 0.2 mm 5 mps 661 mmHg 80%
    10:00 +2°C° 0 mm 5 mps 661 mmHg 74%
    11:00 +2°C° 0 mm 6 mps 660 mmHg 68%
    12:00 +3°C° 0 mm 6 mps 660 mmHg 61%
    13:00 +3°C° 0.1 mm 7 mps 660 mmHg 62%
    14:00 +2°C° 0.1 mm 8 mps 659 mmHg 63%
    15:00 +2°C° 0.1 mm 9 mps 659 mmHg 64%
    16:00 +2°C° 0.1 mm 8 mps 658 mmHg 69%
    17:00 +2°C° 0.1 mm 7 mps 658 mmHg 73%
    18:00 +2°C° 0.1 mm 6 mps 657 mmHg 78%
    19:00 +2°C° 0.1 mm 7 mps 657 mmHg 81%
    20:00 +2°C° 0.1 mm 7 mps 657 mmHg 83%
    21:00 +2°C° 0.1 mm 7 mps 657 mmHg 86%
    22:00 +1°C° 0.5 mm 8 mps 657 mmHg 85%
    23:00 +1°C° 0.5 mm 8 mps 656 mmHg 85%

    24 January, Thursday

    Time Temperature Precipitation Wind Pressure Humidity
    00:00 0°C° 0.5 mm 8 mps 656 mmHg 85%
    01:00 0°C° 0.4 mm 9 mps 655 mmHg 86%
    02:00 0°C° 0.4 mm 10 mps 655 mmHg 87%
    03:00 0°C° 0.4 mm 10 mps 654 mmHg 88%
    04:00 -1°C° 1 mm 8 mps 654 mmHg 89%
    05:00 -2°C° 1 mm 7 mps 654 mmHg 91%
    06:00 -2°C° 1 mm 5 mps 654 mmHg 92%
    07:00 -5°C° 0.2 mm 8 mps 654 mmHg 86%
    08:00 -6°C° 0.2 mm 11 mps 655 mmHg 81%
    09:00 -6°C° 0.2 mm 14 mps 655 mmHg 75%
    10:00 -7°C° 0.1 mm 15 mps 655 mmHg 74%
    11:00 -5°C° 0.1 mm 15 mps 655 mmHg 73%
    12:00 -5°C° 0.1 mm 16 mps 655 mmHg 71%
    13:00 -6°C° 0.1 mm 17 mps 655 mmHg 72%
    14:00 -6°C° 0.1 mm 18 mps 655 mmHg 73%
    15:00 -6°C° 0.1 mm 18 mps 655 mmHg 74%
    16:00 -5°C° 0.2 mm 16 mps 656 mmHg 78%
    17:00 -5°C° 0.2 mm 15 mps 656 mmHg 82%
    18:00 -5°C° 0.2 mm 13 mps 657 mmHg 87%
    19:00 -5°C° 0.8 mm 13 mps 657 mmHg 88%
    20:00 -4°C° 0.8 mm 13 mps 658 mmHg 90%
    21:00 -4°C° 0.8 mm 13 mps 659 mmHg 92%
    22:00 -4°C° 0.3 mm 13 mps 660 mmHg 92%
    23:00 -4°C° 0.3 mm 13 mps 660 mmHg 93%

    25 January, Friday

    Time Temperature Precipitation Wind Pressure Humidity
    00:00 -4°C° 0.3 mm 13 mps 660 mmHg 94%
    01:00 -3°C° 0.1 mm 12 mps 661 mmHg 94%
    02:00 -3°C° 0.1 mm 12 mps 661 mmHg 94%
    03:00 -3°C° 0.1 mm 11 mps 662 mmHg 94%
    04:00 -4°C° 0 mm 11 mps 662 mmHg 94%
    05:00 -4°C° 0 mm 10 mps 662 mmHg 94%
    06:00 -4°C° 0 mm 10 mps 663 mmHg 93%
    07:00 -4°C° 0 mm 10 mps 664 mmHg 91%
    08:00 -4°C° 0 mm 10 mps 664 mmHg 88%
    09:00 -4°C° 0 mm 10 mps 665 mmHg 85%
    10:00 -3°C° 0.1 mm 11 mps 665 mmHg 84%
    11:00 -3°C° 0.1 mm 12 mps 665 mmHg 83%
    12:00 -3°C° 0.1 mm 12 mps 666 mmHg 82%
    13:00 -3°C° 0.1 mm 11 mps 666 mmHg 82%
    14:00 -3°C° 0.1 mm 10 mps 666 mmHg 82%
    15:00 -3°C° 0.1 mm 9 mps 666 mmHg 83%
    16:00 -2°C° 0.1 mm 7 mps 666 mmHg 85%
    17:00 -2°C° 0.1 mm 5 mps 666 mmHg 87%
    18:00 -2°C° 0.1 mm 4 mps 667 mmHg 89%
    19:00 -2°C° 0.1 mm 4 mps 667 mmHg 91%
    20:00 -2°C° 0.1 mm 4 mps 667 mmHg 92%
    21:00 -2°C° 0.1 mm 5 mps 668 mmHg 93%
    22:00 -2°C° 0.1 mm 4 mps 668 mmHg 92%
    23:00 -2°C° 0.1 mm 4 mps 668 mmHg 92%

    26 January, Saturday

    Time Temperature Precipitation Wind Pressure Humidity
    00:00 -2°C° 0.1 mm 4 mps 668 mmHg 91%
    01:00 -2°C° 0 mm 3 mps 668 mmHg 91%
    02:00 -4°C° 0 mm 3 mps 667 mmHg 91%
    03:00 -4°C° 0 mm 2 mps 667 mmHg 90%
    04:00 -3°C° 0 mm 2 mps 667 mmHg 90%
    05:00 -2°C° 0 mm 2 mps 668 mmHg 90%
    06:00 -1°C° 0 mm 3 mps 668 mmHg 90%
    07:00 0°C° 0 mm 3 mps 669 mmHg 90%
    08:00 0°C° 0 mm 3 mps 669 mmHg 90%
    09:00 +1°C° 0 mm 3 mps 670 mmHg 90%
    10:00 +2°C° 0 mm 3 mps 670 mmHg 89%
    11:00 +2°C° 0 mm 3 mps 670 mmHg 88%
    12:00 +3°C° 0 mm 3 mps 670 mmHg 88%
    13:00 +3°C° 0 mm 3 mps 670 mmHg 85%
    14:00 +5°C° 0 mm 2 mps 670 mmHg 83%
    15:00 +5°C° 0 mm 2 mps 670 mmHg 81%
    16:00 +4°C° 0 mm 2 mps 669 mmHg 82%
    17:00 +3°C° 0 mm 1 mps 669 mmHg 82%
    18:00 +2°C° 0 mm 1 mps 669 mmHg 83%
    19:00 +2°C° 0 mm 1 mps 669 mmHg 81%
    20:00 +1°C° 0 mm 2 mps 669 mmHg 80%
    21:00 +1°C° 0 mm 2 mps 669 mmHg 78%
    22:00 +1°C° 0 mm 2 mps 669 mmHg 77%
    23:00 +1°C° 0 mm 3 mps 668 mmHg 76%
    Show more